Location: Poprad
(49.0500°N, 20.3000°E)
Time: 10:26:57
(UTC+01:00)

ISS - Pass Details

Date: 24 January 2021
Orbit: 417 x 422 km, 51.6° (Epoch: 07 March)

Event Time Altitude Azimuth Distance (km) Brightness Sun altitude
Rises 17:08:22 0° 235° (SW) 2,362 1.9 -7.6°
Reaches altitude 10° 17:10:28 10° 230° (SW) 1,501 0.4 -7.9°
Maximum altitude 17:13:47 55° 152° (SSE) 514 -3.4 -8.4°
Enters shadow 17:16:45 12° 75° (ENE) 1,371 -1.8 -8.9°
